Fort Madison, IA

1:10 PM CDT on August 20, 2017 (GMT -0500)
Fort Madison Municipal

Weather History for KFSW - May, 2013

Change the Weather History Date:

Sunday, May 5, 2013

  Actual Average Record
Temperature  
Mean Temperature 60 °F -  
Max Temperature 73 °F 70 °F 88 °F (1959)
Min Temperature 48 °F 48 °F 36 °F (1957)
Degree Days  
Heating Degree Days 4    
Growing Degree Days 10 (Base 50)    
Moisture  
Dew Point 52 °F    
Average Humidity 76    
Maximum Humidity 100    
Minimum Humidity 44    
Precipitation  
Precipitation 0.00 in - - ()
Sea Level Pressure  
Sea Level Pressure 30.00 in    
Wind  
Wind Speed 5 mph (North)    
Max Wind Speed 16 mph    
Max Gust Speed 21 mph    
Visibility 8 miles    
Events Fog , Rain    
Averages and records for this station are not official NWS values.
T = Trace of Precipitation, MM = Missing Value Source: NWS Daily Summary

Daily Weather History Graph

Daily Weather History Graph

Search for Another Location

Airport or City:

Trip Planner

Search our weather history database for the weather conditions in past years. The results will help you decide how hot, cold, wet, or windy it might be!

Date:

Astronomy

May. 05, 2013 Rise Set
Actual Time 5:58 AM CDT 8:05 PM CDT
Civil Twilight 5:28 AM CDT 8:35 PM CDT
Nautical Twilight 4:51 AM CDT 9:12 PM CDT
Astronomical Twilight 4:11 AM CDT 9:53 PM CDT
Moon 3:30 AM CDT (5/5) 4:04 PM CDT (5/5)
Length of Visible Light 15h 07m
Length of Day
14h 07m
Waning Crescent, 18% of the Moon is Illuminated
May 5
Waning Crescent
May 9
New
May 17
First Quarter
May 24
Full
May 31
Last Quarter

Hourly Weather History & Observations

Time (CDT) Temp. Dew Point Humidity Pressure Visibility Wind Dir Wind Speed Gust Speed Precip Events Conditions
12:15 AM 53.6 °F 51.8 °F 94% 30.04 in 10.0 mi Calm Calm - N/A   Overcast
12:35 AM 51.8 °F 50.0 °F 94% 30.04 in 10.0 mi Calm Calm - N/A   Overcast
12:55 AM 51.8 °F 50.0 °F 94% 30.05 in 10.0 mi Calm Calm - N/A   Mostly Cloudy
1:15 AM 51.8 °F 48.2 °F 88% 30.04 in 7.0 mi Calm Calm - N/A   Mostly Cloudy
1:35 AM 51.8 °F 48.2 °F 88% 30.03 in 7.0 mi Calm Calm - N/A   Mostly Cloudy
1:55 AM 50.0 °F 48.2 °F 94% 30.02 in 4.0 mi Calm Calm - N/A   Scattered Clouds
2:15 AM 51.8 °F 48.2 °F 88% 30.03 in 4.0 mi Calm Calm - N/A   Scattered Clouds
2:35 AM 48.2 °F 46.4 °F 93% 30.02 in 0.5 mi NNW 3.5 mph - N/A Fog Fog
2:55 AM 50.0 °F 48.2 °F 94% 30.01 in 2.0 mi NW 3.5 mph - N/A   Mostly Cloudy
3:15 AM 50.0 °F 48.2 °F 94% 30.01 in 1.5 mi NNW 3.5 mph - N/A   Overcast
3:35 AM 50.0 °F 48.2 °F 94% 30.01 in 3.0 mi Calm Calm - N/A   Overcast
3:55 AM 50.0 °F 48.2 °F 94% 30.02 in 2.5 mi Calm Calm - N/A   Overcast
4:15 AM 51.8 °F 48.2 °F 88% 30.02 in 1.8 mi Calm Calm - N/A   Overcast
4:35 AM 50.0 °F 48.2 °F 94% 30.02 in 0.5 mi Calm Calm - N/A Fog Fog
4:55 AM 51.8 °F 48.2 °F 88% 30.03 in 0.2 mi Calm Calm - N/A Fog Fog
5:15 AM 51.8 °F 48.2 °F 88% 30.03 in 0.8 mi Calm Calm - N/A   Overcast
5:55 AM 51.8 °F 48.2 °F 88% 30.03 in 0.2 mi North 3.5 mph - N/A Fog Fog
6:15 AM 51.8 °F 48.2 °F 88% 30.04 in 0.2 mi North 3.5 mph - N/A Fog Fog
6:35 AM 51.8 °F 51.8 °F 100% 30.04 in 0.2 mi North 4.6 mph - N/A Fog Fog
6:55 AM 51.8 °F 51.8 °F 100% 30.04 in 1.8 mi North 8.1 mph - N/A   Overcast
7:15 AM 51.8 °F 51.8 °F 100% 30.03 in 1.5 mi North 6.9 mph - N/A   Overcast
7:35 AM 53.6 °F 51.8 °F 94% 30.04 in 3.0 mi NNW 5.8 mph - N/A   Mostly Cloudy
7:55 AM 53.6 °F 51.8 °F 94% 30.04 in 5.0 mi North 6.9 mph - N/A   Mostly Cloudy
8:15 AM 53.6 °F 51.8 °F 94% 30.04 in 7.0 mi NNW 6.9 mph - N/A   Mostly Cloudy
8:35 AM 55.4 °F 53.6 °F 94% 30.04 in 10.0 mi North 8.1 mph - N/A   Scattered Clouds
8:55 AM 57.2 °F 53.6 °F 88% 30.04 in 10.0 mi NNW 9.2 mph - N/A   Clear
9:15 AM 57.2 °F 53.6 °F 88% 30.04 in 10.0 mi NNW 9.2 mph - N/A   Clear
9:35 AM 57.2 °F 53.6 °F 88% 30.04 in 10.0 mi NNW 9.2 mph - N/A   Clear
9:55 AM 59.0 °F 53.6 °F 82% 30.04 in 10.0 mi NNW 8.1 mph - N/A   Clear
10:15 AM 60.8 °F 55.4 °F 82% 30.03 in 10.0 mi North 9.2 mph - N/A   Clear
10:35 AM 62.6 °F 55.4 °F 77% 30.04 in 10.0 mi North 5.8 mph - N/A   Scattered Clouds
10:55 AM 62.6 °F 55.4 °F 77% 30.03 in 10.0 mi NNW 11.5 mph - N/A   Scattered Clouds
11:15 AM 62.6 °F 55.4 °F 77% 30.03 in 10.0 mi North 12.7 mph - N/A   Mostly Cloudy
11:35 AM 62.6 °F 57.2 °F 82% 30.02 in 10.0 mi North 13.8 mph 19.6 mph N/A Rain Light Rain
11:55 AM 64.4 °F 57.2 °F 77% 30.02 in 10.0 mi North 13.8 mph - N/A   Scattered Clouds
12:15 PM 64.4 °F 55.4 °F 73% 30.02 in 10.0 mi North 13.8 mph 18.4 mph N/A   Scattered Clouds
12:35 PM 64.4 °F 57.2 °F 77% 30.01 in 10.0 mi North 12.7 mph - N/A   Scattered Clouds
1:15 PM 66.2 °F 57.2 °F 73% 29.99 in 10.0 mi North 13.8 mph - N/A   Clear
1:35 PM 66.2 °F 55.4 °F 68% 29.98 in 10.0 mi North 16.1 mph 20.7 mph N/A   Clear
1:55 PM 68.0 °F 57.2 °F 68% 29.98 in 10.0 mi North 13.8 mph 18.4 mph N/A   Clear
2:15 PM 69.8 °F 57.2 °F 64% 29.98 in 10.0 mi North 15.0 mph 20.7 mph N/A   Clear
2:35 PM 69.8 °F 57.2 °F 64% 29.98 in 10.0 mi North 10.4 mph - N/A   Scattered Clouds
2:55 PM 71.6 °F 57.2 °F 60% 29.97 in 10.0 mi North 11.5 mph - N/A   Scattered Clouds
3:15 PM 71.6 °F 55.4 °F 57% 29.96 in 10.0 mi North 10.4 mph - N/A   Scattered Clouds
3:35 PM 71.6 °F 51.8 °F 50% 29.96 in 10.0 mi North 13.8 mph 20.7 mph N/A   Scattered Clouds
3:55 PM 71.6 °F 51.8 °F 50% 29.96 in 10.0 mi North 12.7 mph 17.3 mph N/A   Scattered Clouds
4:15 PM 71.6 °F 51.8 °F 50% 29.95 in 10.0 mi North 11.5 mph 16.1 mph N/A   Scattered Clouds
4:35 PM 73.4 °F 50.0 °F 44% 29.95 in 10.0 mi North 10.4 mph - N/A   Scattered Clouds
4:55 PM 73.4 °F 51.8 °F 47% 29.95 in 10.0 mi North 13.8 mph 18.4 mph N/A   Scattered Clouds
5:15 PM 71.6 °F 51.8 °F 50% 29.95 in 10.0 mi North 11.5 mph - N/A   Scattered Clouds
5:35 PM 71.6 °F 50.0 °F 46% 29.95 in 10.0 mi North 15.0 mph 19.6 mph N/A   Scattered Clouds
5:55 PM 69.8 °F 51.8 °F 53% 29.95 in 10.0 mi North 8.1 mph - N/A   Mostly Cloudy
6:15 PM 69.8 °F 51.8 °F 53% 29.95 in 10.0 mi NE 4.6 mph - N/A Rain Light Rain
6:35 PM 69.8 °F 53.6 °F 56% 29.95 in 10.0 mi North 4.6 mph - N/A   Overcast
6:55 PM 66.2 °F 51.8 °F 60% 29.95 in 10.0 mi North 13.8 mph - N/A   Scattered Clouds
7:15 PM 64.4 °F 51.8 °F 64% 29.96 in 10.0 mi North 8.1 mph - N/A   Clear
7:35 PM 64.4 °F 51.8 °F 64% 29.96 in 10.0 mi NNW 9.2 mph - N/A   Scattered Clouds
7:55 PM 64.4 °F 51.8 °F 64% 29.96 in 10.0 mi NNW 8.1 mph - N/A   Mostly Cloudy
8:15 PM 62.6 °F 53.6 °F 72% 29.96 in 10.0 mi NNW 4.6 mph - N/A   Mostly Cloudy
8:35 PM 62.6 °F 53.6 °F 72% 29.97 in 10.0 mi NNW 3.5 mph - N/A   Scattered Clouds
8:55 PM 62.6 °F 51.8 °F 68% 29.98 in 10.0 mi NNE 9.2 mph 16.1 mph N/A   Mostly Cloudy
9:35 PM 64.4 °F 51.8 °F 64% 30.00 in 10.0 mi East 3.5 mph - N/A   Scattered Clouds
9:55 PM 62.6 °F 50.0 °F 63% 30.01 in 10.0 mi SE 5.8 mph - N/A   Scattered Clouds
10:15 PM 62.6 °F 50.0 °F 63% 30.01 in 10.0 mi ESE 4.6 mph - N/A   Mostly Cloudy
10:35 PM 62.6 °F 50.0 °F 63% 30.01 in 10.0 mi Calm Calm - N/A   Mostly Cloudy
10:55 PM 60.8 °F 48.2 °F 63% 30.01 in 10.0 mi Calm Calm - N/A   Clear
11:15 PM 62.6 °F 48.2 °F 59% 30.01 in 10.0 mi Calm Calm - N/A   Scattered Clouds
11:35 PM 60.8 °F 50.0 °F 68% 30.01 in 10.0 mi Calm Calm - N/A   Scattered Clouds
11:55 PM 59.0 °F 48.2 °F 67% 30.01 in 10.0 mi Calm Calm - N/A   Mostly Cloudy